Wind_Speed
46 46 47 50 51 49 46 43 41 39 35 32 29 26 26 29 28 26 26 23 21 20 18 15 17 21 20 15 18 16 15 15 12 18 18 18 18 23 23 22 19 20 19
47 49 52 53 50 54 54 50 48 46 42 38 34 28 27 28 31 28 27 25 23 21 21 17 15 19 21 20 20 17 17 17 16 14 16 21 22 21 24 24 23 23 23
50 52 54 54 53 52 50 56 57 54 50 42 38 32 30 29 29 30 27 25 23 22 21 24 19 17 20 21 23 20 19 19 20 19 17 17 19 23 27 27 27 27 26
56 54 54 52 60 58 57 57 59 64 54 49 42 39 37 34 30 33 30 27 25 26 24 21 23 22 19 20 22 23 23 21 20 22 23 22 21 22 26 30 32 30 30
62 61 58 56 52 54 25 59 64 64 65 56 48 44 44 39 34 33 31 31 28 27 29 25 22 22 22 20 21 23 23 22 23 23 22 22 23 26 26 27 32 36 34
66 68 67 61 58 65 65 59 56 65 63 63 58 52 52 45 41 34 34 33 32 29 29 27 27 25 23 22 21 23 24 24 23 22 23 22 23 26 24 26 32 34 36
72 73 74 73 67 65 62 65 61 55 59 62 63 60 55 54 46 39 38 34 34 31 30 30 29 29 26 24 22 24 26 25 25 24 22 22 22 25 22 24 23 30 37
75 80 80 79 77 73 67 65 60 64 51 44 61 67 61 56 50 42 39 36 37 36 34 32 32 30 30 28 25 24 25 29 26 27 23 21 21 21 17 18 21 28 34
74 78 83 86 82 78 72 69 65 60 51 44 44 67 58 51 55 46 45 42 40 39 36 36 34 32 30 31 30 27 26 29 29 29 26 22 20 20 17 22 25 25 27
72 77 79 85 85 82 75 71 69 65 61 55 48 56 64 59 51 48 46 46 46 44 39 39 38 36 33 33 34 33 31 30 30 29 28 24 22 19 19 20 22 23 25
74 76 72 79 88 83 81 73 70 67 62 52 49 45 53 66 54 58 40 42 47 50 49 52 42 41 37 36 37 34 33 33 31 29 28 28 25 21 21 21 19 20 25
68 72 71 71 75 86 82 78 72 69 62 57 50 52 48 58 61 48 48 41 41 45 52 55 52 46 43 40 41 37 37 34 32 29 30 30 26 24 22 23 20 17 19
60 63 65 66 67 72 78 77 74 69 64 61 58 55 57 48 48 58 56 50 46 48 55 59 54 51 47 45 42 41 41 36 35 31 31 32 29 26 24 22 21 18 20
57 58 55 59 60 63 64 68 74 70 64 61 60 59 58 53 49 44 59 48 43 54 69 65 55 52 51 46 44 44 43 36 36 33 32 32 33 30 27 24 23 22 20
49 47 45 45 50 53 55 58 60 67 62 61 60 62 64 61 53 41 50 49 48 56 53 38 40 61 53 52 44 46 44 38 38 34 35 32 34 34 31 29 25 25 25
35 37 36 33 39 44 48 49 51 60 62 60 62 62 62 56 60 57 56 57 54 58 56 52 53 34 54 54 48 44 43 39 39 32 34 35 36 36 36 34 30 28 27
23 28 30 29 30 34 36 37 38 47 55 58 59 61 63 60 61 60 60 58 59 62 61 54 51 41 45 54 48 47 43 44 40 37 35 36 37 38 38 39 35 33 33
14 16 18 24 28 32 33 32 34 37 45 53 58 58 59 61 62 62 62 64 63 61 57 52 44 41 30 39 50 47 47 46 43 40 37 36 36 37 37 39 40 38 39
3 6 8 9 11 17 22 27 32 37 41 45 50 53 58 60 62 64 64 64 64 60 59 53 47 43 41 45 42 50 50 47 43 40 40 42 39 38 38 41 40 38 40
7 3 6 8 10 14 17 21 25 31 38 46 52 57 58 59 62 64 67 67 65 63 61 60 50 48 46 42 44 53 58 55 50 43 43 41 42 42 41 41 45 45 43
8 6 4 5 10 12 17 23 25 29 32 37 43 54 57 62 66 66 65 66 68 67 65 64 58 54 51 55 47 41 56 58 53 50 49 46 42 44 47 44 45 44 47
7 5 4 8 4 15 8 10 16 22 28 26 33 42 51 54 52 54 62 69 66 66 68 66 63 58 53 54 57 48 38 60 54 52 48 46 48 47 47 47 44 47 46
13 10 9 9 10 11 8 11 14 13 19 25 22 28 37 44 47 49 51 54 63 67 65 65 63 61 57 54 55 51 48 48 49 55 51 47 49 48 49 46 47 45 45
25 27 21 14 9 8 8 11 12 13 14 20 25 20 25 33 36 38 41 45 49 58 67 66 62 59 57 55 54 56 62 57 55 60 59 51 52 53 51 50 51 53 51
24 22 22 24 24 25 24 19 12 5 4 7 14 18 20 26 33 39 41 42 45 49 55 60 64 60 57 60 59 59 57 53 58 60 58 68 61 59 57 53 55 54 54
21 23 24 25 26 26 26 24 25 27 27 20 7 7 6 14 18 29 35 41 47 47 49 49 53 58 58 57 54 59 59 57 61 57 68 68 74 63 74 56 59 58 58
Wind_Direction
257 263 265 264 262 262 260 255 253 253 253 253 251 252 253 258 260 263 263 265 268 269 266 261 268 266 264 259 264 277 287 292 268 263 255 257 261 255 250 249 249 245 243
256 254 257 262 268 261 259 257 254 251 248 246 247 246 248 251 258 259 262 263 263 267 269 263 257 264 263 265 267 271 277 282 279 268 258 261 260 255 251 249 249 245 245
258 259 256 263 263 261 263 262 252 247 246 241 243 245 243 244 250 256 256 262 260 262 264 270 253 252 261 266 267 270 272 275 280 281 274 269 265 261 251 252 254 248 240
259 257 259 257 259 262 257 258 262 254 240 242 237 241 243 241 240 250 251 252 259 263 260 263 270 262 254 258 266 271 272 274 271 271 276 278 276 269 260 255 252 251 243
260 257 253 256 254 252 239 243 246 262 246 238 237 235 242 239 236 242 250 251 249 257 266 264 265 271 266 258 261 265 268 273 277 277 281 281 288 286 280 267 252 248 245
257 259 257 250 251 251 246 257 247 252 273 244 234 233 238 236 234 233 243 249 253 252 259 264 265 264 272 273 269 262 264 266 269 278 285 285 290 286 279 277 263 246 242
254 254 257 257 251 251 253 255 258 265 259 257 241 235 234 237 234 232 235 244 251 253 254 257 259 264 263 266 270 276 271 268 273 275 278 284 293 295 288 281 261 248 242
253 253 254 254 254 251 251 252 252 255 259 253 250 239 236 234 232 230 236 238 243 247 251 253 254 258 266 266 265 266 270 272 271 279 279 282 288 294 286 291 284 265 246
253 248 249 252 254 255 250 251 250 250 250 245 262 239 233 241 234 226 231 234 238 243 243 249 253 254 259 265 264 264 265 267 267 272 279 284 282 283 279 276 284 288 257
256 252 249 249 253 254 253 248 252 249 247 257 260 238 234 232 236 238 228 233 240 244 243 247 247 253 253 258 262 264 261 262 264 265 274 276 278 277 276 278 283 290 263
259 256 253 250 251 252 253 250 248 249 249 246 252 236 249 236 234 236 238 243 244 247 248 248 250 245 248 252 255 260 263 261 263 266 268 274 278 277 276 280 280 292 274
263 258 255 251 253 254 253 251 248 248 246 245 244 252 246 243 236 230 237 246 251 250 252 253 242 243 246 244 248 253 261 262 261 261 264 268 272 277 274 276 284 288 258
262 261 256 248 253 255 252 254 248 247 247 243 245 246 249 247 237 246 244 239 250 247 251 256 236 236 241 247 248 248 253 257 262 260 259 263 268 272 276 276 278 283 262
257 258 258 248 254 257 257 251 248 244 246 244 243 243 249 243 244 242 236 248 250 251 250 252 245 249 240 236 241 245 251 254 257 257 257 262 265 267 268 271 275 274 272
263 255 255 250 251 251 256 250 247 243 243 244 242 242 243 244 244 241 249 246 245 263 262 258 269 265 257 239 238 241 247 248 252 254 257 255 258 261 263 264 267 274 271
255 251 250 248 247 245 252 248 243 243 241 244 244 244 247 245 246 244 245 242 250 247 265 255 263 269 251 239 235 242 246 246 249 251 256 253 254 258 263 264 266 267 268
264 254 249 240 242 243 245 239 236 241 243 244 247 245 247 250 249 250 252 252 247 250 252 256 272 283 274 244 231 235 241 245 243 248 253 252 255 252 261 261 260 263 265
267 252 252 247 242 239 240 239 236 236 244 246 248 249 247 247 250 250 250 254 254 255 257 263 267 273 254 249 237 234 237 240 243 247 250 247 252 255 255 258 258 261 261
306 245 243 252 254 255 255 250 246 244 244 245 247 247 248 248 249 251 252 253 256 257 260 259 258 260 259 250 263 231 237 242 242 245 248 250 250 252 253 255 255 261 262
346 274 257 263 274 269 261 255 253 254 256 254 251 246 244 245 246 247 249 251 253 254 255 257 255 256 258 255 256 240 238 239 241 240 245 249 249 252 253 251 253 259 260
32 42 16 321 327 333 286 268 263 257 266 271 264 252 248 245 242 243 244 247 250 253 254 256 254 252 252 255 257 262 247 242 239 239 241 244 248 248 251 255 256 259 258
12 4 10 338 303 340 324 273 272 261 263 278 270 255 247 246 246 248 249 245 246 248 250 251 252 252 251 250 252 259 256 237 242 241 242 244 250 253 253 255 254 255 254
30 19 355 347 313 320 301 310 298 287 279 281 290 257 247 244 247 248 248 250 250 247 248 250 251 253 254 255 256 251 254 255 254 248 241 243 250 255 256 258 259 256 250
38 37 40 36 20 11 346 331 327 323 306 283 281 289 256 244 247 249 248 249 250 246 243 247 248 250 252 244 249 246 254 255 262 257 246 252 250 256 256 259 259 262 262
32 32 31 27 22 20 18 17 13 26 30 307 270 266 268 253 249 250 249 249 244 245 242 241 244 247 247 251 246 247 242 256 259 258 260 263 243 253 253 251 258 257 261
24 23 24 21 17 19 19 16 11 4 7 0 123 90 195 250 253 258 246 259 249 244 237 233 237 241 243 248 253 251 258 252 247 256 259 256 248 244 254 247 255 254 258
Height
5774 5775 5778 5779 5779 5781 5784 5785 5784 5785 5786 5788 5791 5792 5793 5794 5793 5793 5795 5795 5796 5796 5796 5798 5800 5801 5803 5801 5802 5802 5800 5800 5800 5800 5800 5801 5803 5804 5805 5806 5806 5808 5809
5763 5763 5764 5767 5769 5771 5773 5776 5777 5776 5776 5777 5782 5784 5786 5786 5787 5787 5788 5790 5790 5792 5793 5793 5793 5795 5797 5797 5797 5797 5797 5796 5796 5796 5796 5797 5797 5799 5800 5801 5801 5802 5805
5753 5754 5754 5754 5757 5757 5759 5762 5763 5765 5767 5766 5771 5776 5778 5779 5779 5781 5781 5784 5785 5786 5787 5788 5788 5788 5790 5791 5792 5793 5794 5793 5792 5791 5791 5792 5793 5794 5795 5795 5796 5797 5798
5741 5743 5745 5747 5749 5747 5744 5744 5749 5751 5757 5757 5760 5764 5767 5771 5772 5774 5775 5776 5778 5780 5780 5782 5784 5786 5785 5784 5786 5787 5788 5789 5789 5787 5786 5786 5787 5788 5787 5789 5790 5791 5792
5726 5727 5729 5734 5740 5733 5717 5715 5727 5742 5742 5747 5751 5752 5756 5760 5762 5765 5769 5770 5769 5772 5775 5775 5775 5778 5780 5779 5780 5781 5781 5782 5783 5783 5782 5780 5779 5780 5780 5780 5782 5783 5785
5713 5711 5713 5716 5722 5725 5729 5725 5718 5726 5734 5737 5739 5740 5743 5749 5750 5755 5759 5763 5763 5764 5768 5769 5769 5770 5775 5775 5774 5774 5775 5776 5776 5776 5777 5775 5774 5773 5773 5772 5772 5774 5778
5697 5697 5697 5698 5702 5705 5713 5714 5715 5716 5726 5727 5726 5729 5732 5737 5740 5744 5746 5753 5756 5757 5760 5760 5762 5764 5765 5767 5767 5770 5772 5770 5771 5771 5770 5770 5768 5766 5765 5765 5764 5765 5769
5679 5681 5680 5681 5684 5689 5696 5700 5703 5708 5713 5711 5716 5718 5720 5725 5727 5735 5739 5742 5747 5748 5751 5753 5754 5756 5759 5760 5760 5761 5763 5765 5763 5764 5764 5764 5763 5761 5759 5758 5759 5758 5759
5656 5659 5661 5662 5666 5668 5679 5683 5687 5694 5698 5700 5703 5706 5712 5715 5720 5721 5730 5733 5737 5738 5742 5744 5746 5747 5749 5752 5752 5753 5755 5757 5758 5758 5758 5757 5757 5755 5753 5753 5752 5752 5749
5636 5638 5643 5644 5646 5652 5661 5668 5673 5679 5686 5692 5692 5681 5702 5709 5710 5711 5718 5723 5727 5729 5733 5735 5737 5739 5740 5743 5744 5746 5747 5748 5750 5750 5752 5751 5750 5749 5748 5748 5747 5746 5745
5616 5617 5622 5625 5626 5632 5639 5651 5658 5663 5672 5681 5683 5684 5689 5696 5699 5699 5705 5714 5717 5721 5724 5727 5729 5729 5732 5734 5735 5737 5738 5739 5742 5744 5745 5746 5744 5743 5743 5742 5741 5741 5741
5594 5596 5602 5607 5608 5612 5621 5629 5641 5648 5656 5666 5670 5671 5677 5682 5688 5688 5696 5704 5707 5711 5713 5713 5715 5718 5721 5723 5726 5728 5729 5730 5733 5735 5738 5738 5739 5738 5737 5736 5735 5735 5736
5575 5576 5581 5589 5593 5595 5604 5612 5623 5633 5640 5650 5657 5662 5662 5668 5675 5681 5685 5693 5696 5699 5699 5700 5702 5706 5711 5714 5715 5717 5719 5720 5723 5726 5727 5730 5732 5732 5730 5730 5729 5730 5730
5559 5560 5564 5571 5578 5579 5586 5595 5605 5617 5627 5634 5641 5647 5653 5657 5662 5666 5671 5667 5682 5683 5680 5682 5686 5691 5697 5704 5704 5706 5709 5712 5715 5717 5719 5721 5723 5725 5724 5724 5723 5724 5725
5543 5545 5550 5557 5562 5566 5570 5578 5589 5602 5613 5620 5627 5633 5641 5646 5641 5652 5660 5666 5668 5669 5670 5677 5681 5682 5685 5690 5694 5695 5699 5702 5705 5707 5710 5711 5714 5716 5717 5717 5715 5716 5717
5531 5536 5541 5546 5550 5556 5559 5566 5575 5587 5598 5607 5612 5618 5623 5633 5636 5642 5643 5650 5657 5655 5658 5665 5671 5667 5672 5677 5682 5685 5689 5693 5695 5696 5700 5701 5703 5706 5708 5709 5708 5708 5710
5523 5527 5531 5536 5541 5545 5549 5556 5563 5572 5583 5591 5598 5604 5609 5615 5623 5629 5631 5636 5641 5645 5649 5655 5657 5660 5662 5667 5670 5673 5679 5682 5686 5687 5688 5691 5694 5694 5698 5700 5700 5699 5701
5520 5522 5525 5529 5533 5537 5542 5546 5552 5560 5570 5577 5583 5591 5596 5601 5607 5614 5619 5624 5628 5632 5637 5644 5648 5648 5654 5660 5662 5663 5668 5670 5675 5677 5678 5681 5682 5684 5686 5689 5691 5691 5691
5520 5521 5523 5526 5529 5532 5536 5539 5543 5549 5557 5565 5571 5576 5582 5588 5593 5597 5603 5609 5614 5618 5624 5630 5638 5640 5645 5648 5649 5653 5658 5660 5663 5667 5668 5671 5672 5673 5675 5677 5679 5680 5682
5520 5520 5523 5525 5527 5530 5531 5533 5537 5541 5545 5550 5555 5561 5567 5572 5577 5583 5586 5591 5596 5604 5611 5616 5623 5628 5632 5634 5637 5642 5644 5647 5651 5651 5656 5659 5661 5663 5664 5665 5666 5668 5670
5522 5522 5523 5525 5525 5526 5526 5528 5531 5534 5537 5538 5539 5542 5549 5555 5560 5564 5569 5576 5582 5587 5594 5600 5606 5612 5617 5620 5624 5627 5630 5634 5635 5638 5641 5645 5649 5649 5651 5650 5652 5654 5657
5522 5522 5523 5524 5524 5524 5521 5523 5525 5527 5528 5527 5526 5526 5531 5535 5540 5545 5552 5561 5568 5572 5577 5582 5588 5595 5601 5607 5610 5612 5614 5618 5622 5625 5628 5631 5633 5634 5635 5637 5640 5642 5643
5524 5523 5522 5522 5522 5522 5521 5521 5520 5518 5517 5518 5518 5517 5517 5522 5527 5532 5538 5544 5550 5557 5562 5566 5573 5578 5584 5590 5596 5598 5600 5603 5606 5611 5613 5616 5619 5620 5621 5621 5625 5627 5628
5530 5528 5526 5524 5522 5521 5520 5518 5515 5512 5511 5511 5510 5510 5511 5514 5518 5522 5526 5531 5535 5539 5545 5552 5557 5562 5567 5574 5578 5582 5587 5587 5592 5593 5599 5599 5603 5605 5607 5608 5609 5610 5612
5533 5531 5529 5526 5525 5523 5520 5518 5516 5514 5510 5508 5506 5506 5505 5506 5508 5512 5516 5517 5520 5523 5528 5533 5540 5546 5552 5556 5559 5565 5563 5568 5574 5575 5577 5582 5583 5588 5590 5593 5595 5595 5595
5534 5532 5529 5528 5526 5524 5522 5520 5518 5516 5511 5507 5505 5503 5502 5500 5500 5502 5502 5504 5506 5508 5512 5515 5521 5527 5534 5537 5541 5545 5548 5550 5554 5557 5559 5563 5565 5569 5571 5576 5578 5578 5580